Regional Weather Roundup
Issued by NWS Jackson, KY

Home | Current Version | Previous Version | Text Only | Print | Product List | Glossary Off
Versions: 1 2 3 4 5 6 7 8 9 10 11 12 13 14 15 16 17 18 19 20 21 22 23 24 25 26 27 28 29 30 31 32 33 34 35 36 37 38 39 40 41 42 43 44 45 46 47 48 49 50

678
ASUS43 KJKL 251310
RWRJKL

EAST KENTUCKY HOURLY WEATHER ROUNDUP
NATIONAL WEATHER SERVICE JACKSON KY
800 AM EST SAT FEB 25 2017

NOTE: "FAIR" INDICATES FEW OR NO CLOUDS BELOW 12,000 FEET WITH
NO SIGNIFICANT WEATHER AND/OR OBSTRUCTIONS TO VISIBILITY.

* THESE REPORTS ARE NOT UNDER NWS QUALITY CONTROL AND MAY NOT
  REPORT WEATHER SUCH AS PRECIPITATION AND FOG.

KYZ079-080-083-085-087-088-110-112-115-119-120-251400
...EASTERN KENTUCKY...

CITY           SKY/WX    TMP DP  RH WIND       PRES   REMARKS
JACKSON        CLOUDY    46  43  89 W12G21    29.74R
LONDON         PTCLDY    43  39  86 W15       29.79R
SOMERSET*      MOCLDY    41  32  70 W8        29.83R
MONTICELLO*    MOCLDY    42  35  76 W15       29.84R
WILLIAMSBURG*  CLOUDY    45  45 100 NW3       29.79R
MIDDLESBORO*   CLOUDY    49  41  74 W3        29.77R
HARLAN APT*    CLOUDY    45  43  93 CALM      29.75S
PIKE CO APT*   CLOUDY    45  45  99 SW3       29.74R
BIG SANDY APT* CLOUDY    46  43  89 SW7       29.73R
MOREHEAD APT*  CLOUDY    43  32  65 W12G20    29.76R
ASHLAND*       CLOUDY    46  45  93 NW3       29.69R
$$

KYZ035-036-041-042-044-050-067-078-099-251400
...CENTRAL KENTUCKY...

CITY           SKY/WX    TMP DP  RH WIND       PRES   REMARKS
FLEMING/MASON* PTCLDY    41  32  71 W10       29.76R
DANVILLE*      PTCLDY    39  32  75 W7        29.80S WCI  34
LEXINGTON      PTCLDY    41  29  62 W13       29.77R
FRANKFORT      CLOUDY    41  27  57 W12G20    29.78R
LOUISVILLE     MOCLDY    36  20  52 W24G31    29.85R WCI  24
LEBANON*       PTSUNNY   39  30  70 W16G22    29.82R WCI  30
GLASGOW*       PTCLDY    38  29  69 W13G22    29.88R WCI  30
BOWLING GREEN  CLOUDY    39  25  57 NW13G22   29.91R WCI  31
$$

KYZ091>093-OHZ055-061-077-WVZ005-015-034-035-042-251400
...SOUTHERN OHIO/WEST VIRGINIA...

CITY           SKY/WX    TMP DP  RH WIND       PRES   REMARKS
COVINGTON      CLOUDY    37  26  64 W17G33    29.74R WCI  27
COLUMBUS       CLOUDY    44  33  65 W8        29.65R
DAYTON         CLOUDY    37  28  70 W21       29.69R WCI  26
WILMINGTON     CLEAR     40  33  76 SW15      29.67R WCI  32
HUNTINGTON     CLOUDY    48  44  86 SW6       29.69R
CHARLESTON     LGT RAIN  48  44  86 SW7       29.68R
PINEVILLE*     LGT RAIN  52  49  89 MISG      29.73R
BECKLEY        LGT RAIN  52  50  93 SW5       29.65F
BLUEFIELD      CLOUDY    51  48  89 SW9       29.69S
LOGAN CO APT*  CLOUDY    48  48 100 W12G20    29.70R
$$

VAZ002-007-008-TNZ017-027-036-066-071-251400
...SOUTHWEST VIRGINIA/EAST TENNESSEE...

CITY           SKY/WX    TMP DP  RH WIND       PRES   REMARKS
WISE*          CLOUDY    45  37  76 CALM      29.74S
JONESVILLE*      N/A     48  45  87 NW5       29.77R
ABINGDON*      DRIZZLE   56  55  96 W7        29.69S
BRISTOL        LGT RAIN  55  55 100 W20G25    29.71R
MORRISTOWN*    PTSUNNY   50  45  81 NW8G17    29.76R
SEVIERVILLE*   CLOUDY    48  46  93 SW5       29.79R
KNOXVILLE      MOCLDY    53  44  71 W10       29.80R
LAFOLLETTE*    PTSUNNY   48  45  87 CALM      29.81R
OAK RIDGE      CLOUDY    53  43  68 VRB5      29.80R
CROSSVILLE     CLEAR     42  30  62 W12       29.82R
NASHVILLE      MOCLDY    43  26  51 NW14G22   29.93R
$$

...KEY TO REMARKS...
VSB - VISIBILITY IN MILES
WCI - WIND CHILL INDEX
HX  - HEAT INDEX

$$




USA.gov is the U.S. government's official web portal to all federal, state and local government web resources and services.